Theta_e
300 299 299 299 299 301 306 308 307 309 309 309 307 301 300 306 301 302 305 304 304 305 303 301 301 301 301 300 299 298 298 297 298 299 299 298 298 298 297 299 298 300 302 300 300
300 299 299 299 298 301 306 306 305 308 307 303 301 300 301 305 304 305 304 302 303 304 301 302 302 301 299 300 299 299 297 298 298 299 299 299 299 298 298 297 299 298 299 299 300
300 299 299 299 299 301 305 304 305 306 301 300 300 299 304 307 303 305 304 301 301 300 299 300 301 300 300 300 300 299 298 299 299 299 299 299 298 297 298 298 299 297 297 297 298
300 300 299 299 299 300 303 300 304 300 300 299 299 300 304 305 300 302 300 299 299 299 299 299 298 299 300 300 299 299 299 299 299 300 300 299 298 298 297 297 297 296 296 296 297
301 300 299 299 299 299 299 298 299 301 300 300 300 300 305 300 300 300 299 299 299 299 299 298 298 299 299 299 299 299 299 300 300 299 299 299 299 298 298 298 297 297 298 297 298
301 300 300 299 299 299 298 298 298 300 300 300 300 304 305 299 301 299 299 299 298 298 298 298 298 298 299 299 300 299 300 300 300 299 299 300 299 298 298 297 297 296 296 297 297
300 300 300 300 299 298 297 298 298 299 299 299 304 304 298 298 299 298 299 298 298 298 298 299 300 299 299 299 299 300 300 300 300 300 300 299 300 300 299 300 295 292 292 293 293
301 300 300 300 299 298 297 300 299 299 299 302 302 304 299 299 299 299 299 299 299 299 300 300 300 300 299 299 300 300 301 302 300 299 299 298 299 299 296 297 292 290 289 290 291
301 301 300 300 299 298 298 301 299 299 299 301 302 302 297 299 298 298 299 298 299 299 300 300 300 300 300 299 297 299 300 300 300 299 299 298 299 300 295 292 290 289 288 289 289
302 301 300 300 299 298 297 302 300 300 301 300 300 298 298 298 298 299 299 298 299 298 299 300 298 298 296 296 296 299 299 300 298 297 298 300 297 297 291 291 289 288 288 288 288
302 301 300 300 299 299 297 302 298 304 298 298 298 298 297 298 299 299 299 298 299 297 297 297 297 298 297 298 298 297 298 297 296 298 296 297 297 294 292 288 288 288 288 287 287
302 301 301 300 299 299 296 300 300 299 297 298 298 299 298 297 298 297 299 298 297 298 296 297 298 298 298 298 298 297 297 296 296 295 296 297 295 293 291 290 287 287 287 287 287
302 302 301 300 301 300 297 297 299 300 299 298 297 298 297 297 298 297 297 297 297 298 297 298 299 298 298 298 298 295 296 295 294 296 297 297 294 292 291 290 287 286 286 286 286
303 301 301 300 300 300 298 297 300 301 298 299 298 298 298 298 299 298 297 298 297 298 298 298 299 298 298 298 296 288 295 293 294 292 295 295 293 293 289 289 286 285 285 285 285
304 301 301 300 300 299 297 298 300 301 296 298 298 297 298 298 297 298 297 297 297 297 295 298 298 298 293 298 295 292 293 293 295 292 291 299 293 293 288 287 285 284 284 284 285
305 302 301 301 300 300 297 299 302 301 298 299 297 297 298 297 298 298 296 296 296 297 297 297 297 296 297 296 294 292 291 296 299 291 286 294 292 291 286 285 283 282 282 283 284
306 302 301 300 300 298 298 301 303 301 297 295 296 297 297 298 298 298 297 296 296 293 294 295 297 296 296 293 293 291 290 290 292 288 290 295 293 287 285 284 282 281 280 282 282
306 302 301 300 299 296 300 300 298 294 293 296 297 298 299 297 298 298 297 296 295 294 290 289 295 295 294 289 288 292 290 291 294 292 293 296 292 289 285 282 280 279 280 280 281
305 302 302 301 297 296 301 300 302 297 297 296 299 297 294 298 297 297 297 296 296 293 291 291 292 295 293 291 290 292 293 291 290 290 290 293 293 288 287 282 278 277 279 280 281
303 301 302 301 294 299 301 303 296 295 295 297 297 294 293 292 296 296 297 296 297 296 291 291 294 295 294 292 291 292 291 294 293 293 294 295 291 285 281 279 278 277 279 279 280
301 299 300 294 296 301 304 298 295 295 296 297 294 296 296 294 296 295 299 296 296 296 295 292 290 295 293 285 286 291 291 291 292 293 295 295 295 278 278 277 277 278 278 279 280
301 301 296 294 300 297 298 293 295 293 295 296 296 296 293 291 292 298 299 297 295 295 296 294 289 293 289 285 288 290 288 289 290 293 294 293 293 284 279 277 278 278 278 278 280
299 301 296 297 302 300 294 295 295 294 295 296 297 295 289 290 292 292 297 295 295 295 292 291 294 290 293 292 293 289 291 289 290 290 288 291 289 283 280 279 278 277 278 278 279
300 302 297 298 298 298 297 296 294 294 295 296 296 294 289 288 290 288 296 296 295 295 297 294 291 288 293 291 283 289 289 289 288 283 284 287 285 283 281 277 277 276 277 277 278
299 300 296 298 300 298 296 296 295 294 294 295 295 293 291 290 286 287 292 295 296 297 294 292 290 284 287 279 285 286 285 285 282 282 287 287 284 280 279 277 276 276 276 277 277
299 297 292 296 297 300 299 297 296 294 295 294 292 292 290 290 293 292 293 295 297 294 295 291 291 291 290 282 284 287 289 283 283 278 278 278 282 278 276 275 275 276 276 276 276
297 297 300 299 299 299 299 298 297 295 294 294 294 293 291 293 291 291 293 293 293 289 293 289 287 285 287 287 290 291 286 280 278 274 280 284 284 276 275 272 272 274 275 275 275
Wind_Speed
14 15 16 18 19 20 20 19 18 17 16 15 10 6 4 7 11 13 9 12 15 16 16 13 16 22 6 1 3 3 1 3 4 4 3 4 6 7 7 4 6 4 2 5 11
14 15 17 20 21 22 22 20 19 19 15 10 7 5 5 10 13 13 7 15 14 12 14 14 9 14 4 3 3 3 3 6 5 2 4 3 2 5 5 8 5 7 16 18 18
15 16 18 20 22 22 23 20 21 17 10 8 6 5 5 4 3 3 11 16 12 11 14 13 8 3 4 4 3 4 4 4 7 5 5 5 5 3 3 4 1 8 10 12 17
15 17 18 21 23 24 24 21 20 10 8 7 5 5 4 1 1 6 13 14 15 14 11 8 6 4 3 4 4 6 6 5 5 6 7 8 5 6 7 7 8 11 10 6 8
15 17 19 21 23 25 24 22 13 9 7 6 4 3 1 5 1 7 12 17 22 13 8 3 4 4 4 4 7 4 4 8 10 8 10 12 9 10 10 14 10 11 9 10 9
15 16 19 20 23 26 22 22 10 6 6 6 5 3 2 4 2 10 17 22 23 15 6 1 1 2 4 4 2 5 10 13 12 12 10 8 11 3 10 7 9 14 15 13 12
15 17 19 20 23 27 19 18 9 6 4 5 5 4 5 5 5 9 24 25 13 10 2 4 3 3 4 6 4 7 9 8 5 2 5 12 7 8 14 15 12 13 14 15 17
16 17 19 20 23 24 19 15 7 5 2 4 3 2 1 3 8 16 28 21 14 2 1 3 4 2 1 5 5 5 2 4 4 12 2 9 7 9 18 11 13 15 15 15 15
16 17 19 21 23 20 19 14 4 2 2 3 3 3 2 1 12 13 20 14 12 2 2 1 3 1 4 5 4 2 7 15 10 11 8 5 11 7 13 14 12 13 14 14 17
16 18 18 21 23 17 17 6 1 3 2 1 2 3 2 5 9 10 24 14 3 3 2 2 3 3 4 4 7 16 13 9 16 10 11 8 9 12 14 13 11 12 13 14 16
15 17 18 20 23 16 17 2 4 3 8 2 1 1 5 12 1 14 22 9 5 7 3 3 5 2 5 3 6 10 13 14 14 7 15 4 6 9 9 14 15 16 16 16 18
15 17 17 19 18 13 10 5 1 2 1 1 2 3 5 3 3 7 17 6 4 4 6 5 0 2 4 5 9 12 13 7 10 12 7 8 10 9 9 13 12 13 15 16 18
14 16 17 19 8 10 10 6 1 1 2 2 2 2 4 2 2 5 7 2 3 5 2 3 2 5 6 11 16 14 4 10 11 7 3 8 2 5 9 9 15 15 15 16 18
12 14 16 16 3 7 3 8 2 1 4 4 3 2 2 1 1 3 8 1 4 3 4 3 3 5 8 7 9 4 3 17 15 2 4 2 3 5 12 9 16 18 18 18 19
10 11 12 11 4 3 5 2 4 1 3 1 4 2 5 4 3 4 10 6 1 4 4 2 5 6 3 11 5 8 19 12 5 3 2 4 3 2 9 12 20 19 20 19 19
9 9 10 7 5 1 3 3 2 5 4 1 3 6 4 4 5 6 7 6 1 3 2 3 5 2 2 13 1 12 5 2 2 2 4 7 2 3 5 9 15 18 19 21 20
9 8 9 6 1 2 1 1 4 4 3 4 2 4 1 5 5 5 4 7 4 6 7 7 3 2 3 6 1 9 6 4 5 5 4 4 4 4 4 7 9 15 18 18 18
7 8 6 3 2 0 2 4 3 2 5 0 2 2 2 5 2 6 3 5 4 3 2 3 7 3 5 4 4 5 3 3 3 3 5 5 4 4 4 4 9 11 12 16 17
5 3 2 2 2 4 3 3 6 5 3 4 2 4 4 3 1 5 3 0 0 1 4 4 6 2 4 1 2 5 2 1 2 3 2 2 1 3 12 18 15 15 17 16 17
3 1 2 3 2 2 3 5 3 0 4 3 4 3 2 4 4 3 1 1 1 1 4 2 6 3 3 1 4 4 3 1 1 4 3 3 4 4 13 18 16 16 16 17 16
4 2 3 3 5 2 3 5 3 1 2 3 5 3 4 3 2 2 2 1 1 1 4 4 2 3 3 2 4 3 3 3 3 2 2 4 4 4 5 8 12 13 14 14 14
5 1 3 6 2 1 2 4 3 3 1 1 3 3 5 3 1 2 3 2 3 3 4 4 3 6 4 5 5 4 2 1 1 4 2 1 4 1 2 4 8 12 14 12 13
3 2 1 2 2 2 2 2 2 4 4 4 3 2 2 5 1 2 2 3 4 1 4 3 1 5 3 3 2 4 1 2 3 1 3 2 4 4 7 9 9 9 11 12 12
3 1 2 1 1 5 3 4 3 1 3 3 3 4 3 1 1 3 2 1 4 2 6 5 2 5 5 5 3 5 3 4 2 1 2 4 7 6 15 10 11 11 10 11 9
2 3 2 3 3 4 3 4 4 4 2 4 1 5 6 3 2 4 3 1 1 2 2 3 2 1 7 6 1 3 5 4 4 4 2 5 3 4 6 10 7 7 7 8 8
5 3 1 1 3 6 6 6 9 4 7 4 4 5 6 5 6 6 4 3 2 2 1 2 2 1 5 7 5 4 6 2 2 4 4 4 6 3 3 3 5 6 6 5 6
4 4 2 2 2 4 5 6 7 8 5 3 6 5 3 8 5 3 1 3 3 5 1 3 2 2 5 7 7 6 6 2 3 3 5 2 4 1 3 3 3 5 6 7 8
Wind_Direction
7 6 1 359 357 354 351 348 348 339 337 336 345 13 70 82 92 62 45 348 338 340 335 343 358 353 350 322 215 118 46 245 253 211 279 357 17 324 308 330 326 349 133 49 4
1 1 0 357 355 352 349 348 346 337 342 356 9 29 109 108 82 65 18 354 355 344 344 351 345 336 354 320 310 138 151 236 223 358 299 287 337 290 335 330 301 335 327 325 333
355 359 359 354 354 349 348 347 343 339 9 21 19 52 120 130 96 337 2 353 346 355 354 340 336 2 331 354 339 326 226 247 298 314 1 316 299 295 294 296 301 308 299 310 322
356 353 355 354 351 349 347 347 344 3 26 22 25 88 93 84 51 341 342 346 344 347 348 10 354 356 327 333 3 332 282 304 287 326 321 306 278 285 218 251 257 261 256 248 276
352 349 353 351 350 350 347 347 352 6 17 20 25 98 92 50 95 329 341 344 354 353 347 355 341 11 0 304 319 245 287 311 308 308 299 293 286 268 290 275 297 291 286 282 289
347 347 351 349 350 349 347 347 348 359 5 24 58 57 63 71 329 334 343 339 348 343 306 286 25 317 274 279 311 304 306 301 298 299 292 288 292 14 279 313 337 15 6 353 1
343 345 346 348 351 348 348 347 342 348 2 43 70 65 57 167 29 359 354 341 2 307 318 40 69 78 322 314 274 268 294 298 292 338 296 24 333 311 338 329 33 11 13 0 2
338 342 343 348 351 349 345 341 336 342 38 47 37 62 151 202 310 0 358 360 3 57 35 68 48 100 208 275 297 302 291 309 343 316 320 360 285 12 3 35 20 9 0 352 352
335 339 342 347 352 350 343 333 333 12 61 14 58 44 336 255 346 355 355 337 332 296 25 46 85 124 348 336 335 274 305 299 309 335 316 304 295 7 10 25 16 6 356 349 344
334 334 342 346 350 350 347 344 96 37 354 317 49 50 30 309 324 339 350 352 293 307 27 45 58 61 1 21 337 309 313 298 308 316 15 313 350 56 28 16 20 7 356 350 347
331 332 340 346 347 354 354 28 16 357 31 68 173 241 309 321 23 349 356 360 2 58 8 305 57 327 311 299 285 297 301 301 301 345 328 284 57 49 25 20 13 4 356 351 344
331 330 338 347 347 6 24 64 72 279 337 325 302 277 268 313 348 333 8 36 17 44 347 9 244 273 293 315 325 319 305 293 294 320 317 82 48 19 23 23 12 1 354 348 343
329 330 339 348 1 10 54 44 344 151 165 290 261 277 296 346 5 311 30 344 39 32 0 174 254 350 334 331 340 330 265 312 302 317 46 131 133 49 2 3 4 3 352 354 354
325 329 339 353 52 356 48 1 141 65 74 297 314 313 323 227 30 303 12 35 29 346 312 249 322 354 327 316 356 311 297 311 302 315 157 155 267 7 349 351 359 354 357 352 347
315 324 342 9 355 45 336 30 140 41 27 250 304 309 347 68 335 9 39 31 158 286 67 287 334 324 339 321 347 252 316 294 282 272 9 146 109 343 357 345 348 350 347 345 343
303 321 339 347 350 41 344 139 112 45 257 353 329 359 14 10 351 331 23 17 75 338 318 257 285 70 290 301 29 326 343 359 274 80 24 299 122 323 2 334 336 339 341 342 342
293 314 327 334 325 339 147 109 33 130 342 306 318 17 98 327 338 38 34 16 38 22 12 339 274 28 353 329 336 359 23 354 354 6 228 283 2 262 329 344 344 334 334 342 342
284 307 315 310 267 195 148 58 97 217 228 121 24 339 43 11 346 350 27 15 26 65 51 37 330 38 337 126 236 352 86 135 264 319 288 354 343 275 186 14 0 349 334 343 344
269 290 303 148 163 167 89 57 213 197 150 165 37 57 322 359 124 16 41 245 319 79 119 16 279 113 61 98 80 332 6 312 220 197 339 252 169 127 333 346 353 351 351 347 346
206 160 145 162 167 162 79 243 199 175 118 74 168 143 216 281 18 34 337 246 156 157 141 209 289 202 131 41 79 80 328 189 0 334 308 308 303 252 335 336 345 344 345 345 346
169 68 158 141 148 60 185 222 211 162 121 134 188 151 209 253 206 272 252 155 208 146 151 128 129 286 93 357 214 11 12 355 283 192 308 317 292 205 290 318 331 330 340 341 340
141 80 151 157 71 68 162 195 181 176 117 181 126 116 173 175 227 262 259 179 207 147 120 143 212 277 197 245 170 123 175 158 350 335 300 242 289 297 247 335 341 336 340 345 346
117 116 148 163 182 212 317 284 224 152 193 180 171 127 102 178 27 224 291 134 161 132 156 171 189 325 38 348 271 96 89 64 255 282 277 300 292 230 7 352 353 346 341 343 350
103 138 318 68 287 120 173 228 221 218 183 168 138 101 91 68 314 280 266 195 175 164 158 131 148 175 210 196 238 333 337 8 109 65 289 229 290 312 328 342 342 344 342 336 341
92 224 190 196 224 129 183 161 152 201 223 169 213 200 163 158 356 238 249 239 154 58 75 100 172 238 273 128 262 244 277 349 112 222 201 290 270 268 302 318 328 318 325 333 348
139 151 313 108 112 141 195 225 195 173 155 228 197 201 164 176 192 213 189 173 188 58 101 37 285 16 293 105 132 280 284 180 214 181 271 284 286 185 248 309 316 329 342 354 1
134 90 101 90 142 146 214 217 204 145 217 204 173 132 171 234 182 201 210 118 138 138 177 104 88 37 269 310 131 348 239 200 270 207 163 24 239 210 309 311 305 326 344 8 13